FW7275 Weather Reports


Display with metric or nautical units.
time (UTC)temp
F
wind
direction
speed
MPH
gust
MPH
rain 1hr
in
rain 24hr
in
rain mn
in
humidity
%
barometer
mb
20260904165029 88 0 0.0 0.0 0.00 0.00 0.00 36
20260904164031 89 0 0.0 0.0 0.00 0.00 0.00 35
20260904162028 90 0 0.0 0.0 0.00 0.00 0.00 34
20260904161025 91 0 0.0 0.0 0.00 0.00 0.00 33
20260904160034 91 0 0.0 0.0 0.00 0.00 0.00 33
20260904155034 91 0 0.0 0.0 0.00 0.00 0.00 33
20260904153034 90 0 0.0 0.0 0.00 0.00 0.00 32
20260904152034 90 0 0.0 0.0 0.00 0.00 0.00 32
20260904151024 91 0 0.0 0.0 0.00 0.00 0.00 32
20260904145033 92 0 0.0 0.0 0.00 0.00 0.00 36
20260904144024 92 0 0.0 0.0 0.00 0.00 0.00 36
20260904143027 92 0 0.0 0.0 0.00 0.00 0.00 35
20260904142033 92 0 0.0 0.0 0.00 0.00 0.00 35
20260904141028 92 0 0.0 0.0 0.00 0.00 0.00 35
20260904140035 92 0 0.0 0.0 0.00 0.00 0.00 35
20260904135026 92 0 0.0 0.0 0.00 0.00 0.00 35
20260904134028 92 0 0.0 0.0 0.00 0.00 0.00 36
20260904133034 92 0 0.0 0.0 0.00 0.00 0.00 37
20260904132034 92 0 0.0 0.0 0.00 0.00 0.00 36
20260904130032 91 0 0.0 0.0 0.00 0.00 0.00 36
20260904124019 90 0 0.0 0.0 0.00 0.00 0.00 37
20260904123033 90 0 0.0 0.0 0.00 0.00 0.00 37
20260904121033 89 0 0.0 0.0 0.00 0.00 0.00 38
20260904120124 89 0 0.0 0.0 0.00 0.00 0.00 39
20260904115032 89 0 0.0 0.0 0.00 0.00 0.00 40
20260904114026 89 0 0.0 0.0 0.00 0.00 0.00 40
20260904113028 88 0 0.0 0.0 0.00 0.00 0.00 41
20260904112030 88 0 0.0 0.0 0.00 0.00 0.00 41
20260904111023 87 0 0.0 0.0 0.00 0.00 0.00 41
20260904105021 86 0 0.0 0.0 0.00 0.00 0.00 42
20260904104021 86 0 0.0 0.0 0.00 0.00 0.00 43
20260904103025 85 0 0.0 0.0 0.00 0.00 0.00 43
20260904102031 86 0 0.0 0.0 0.00 0.00 0.00 43
20260904101022 86 0 0.0 0.0 0.00 0.00 0.00 43
20260904100030 85 0 0.0 0.0 0.00 0.00 0.00 44
20260904095025 84 0 0.0 0.0 0.00 0.00 0.00 44
20260904093028 84 0 0.0 0.0 0.00 0.00 0.00 45
20260904092026 84 0 0.0 0.0 0.00 0.00 0.00 46
20260904091021 83 0 0.0 0.0 0.00 0.00 0.00 46
20260904090031 83 0 0.0 0.0 0.00 0.00 0.00 47
20260904085020 83 0 0.0 0.0 0.00 0.00 0.00 46
20260904084027 83 0 0.0 0.0 0.00 0.00 0.00 47
20260904082029 81 0 0.0 0.0 0.00 0.00 0.00 49
20260904081033 81 0 0.0 0.0 0.00 0.00 0.00 51
20260904080026 80 0 0.0 0.0 0.00 0.00 0.00 53
20260904075030 79 0 0.0 0.0 0.00 0.00 0.00 54
20260904074034 79 0 0.0 0.0 0.00 0.00 0.00 55
20260904073036 78 0 0.0 0.0 0.00 0.00 0.00 57
20260904071025 76 0 0.0 0.0 0.00 0.00 0.00 59
20260904070030 76 0 0.0 0.0 0.00 0.00 0.00 59
20260904065028 75 0 0.0 0.0 0.00 0.00 0.00 59
20260904064018 74 0 0.0 0.0 0.00 0.00 0.00 61
20260904063029 74 0 0.0 0.0 0.00 0.00 0.00 61
20260904062026 71 0 0.0 0.0 0.00 0.00 0.00 66
20260904061031 69 0 0.0 0.0 0.00 0.00 0.00 67
20260904060035 68 0 0.0 0.0 0.00 0.00 0.00 68
20260904055020 67 0 0.0 0.0 0.00 0.00 0.00 69
20260904054025 67 0 0.0 0.0 0.00 0.00 0.00 69
20260904053026 66 0 0.0 0.0 0.00 0.00 0.00 69
20260904051030 65 0 0.0 0.0 0.00 0.00 0.00 71
20260904045035 65 0 0.0 0.0 0.00 0.00 0.00 72
20260904044033 65 0 0.0 0.0 0.00 0.00 0.00 72
20260904043032 65 0 0.0 0.0 0.00 0.00 0.00 72
20260904042023 65 0 0.0 0.0 0.00 0.00 0.00 71
20260904040027 67 0 0.0 0.0 0.00 0.00 0.00 67
20260904035025 67 0 0.0 0.0 0.00 0.00 0.00 66
20260904034035 67 0 0.0 0.0 0.00 0.00 0.00 65
20260904032018 68 0 0.0 0.0 0.00 0.00 0.00 64
20260904031024 68 0 0.0 0.0 0.00 0.00 0.00 64
20260904030033 68 0 0.0 0.0 0.00 0.00 0.00 64
20260904025022 68 0 0.0 0.0 0.00 0.00 0.00 65
20260904024031 68 0 0.0 0.0 0.00 0.00 0.00 65
20260904023026 68 0 0.0 0.0 0.00 0.00 0.00 66
20260904022026 67 0 0.0 0.0 0.00 0.00 0.00 67
20260904021020 67 0 0.0 0.0 0.00 0.00 0.00 68
20260904020036 67 0 0.0 0.0 0.00 0.00 0.00 69
20260904015030 67 0 0.0 0.0 0.00 0.00 0.00 69
20260904014022 67 0 0.0 0.0 0.00 0.00 0.00 69
20260904013026 67 0 0.0 0.0 0.00 0.00 0.00 69
20260904012023 67 0 0.0 0.0 0.00 0.00 0.00 69
20260904011029 68 0 0.0 0.0 0.00 0.00 0.00 68
20260904010027 68 0 0.0 0.0 0.00 0.00 0.00 68
20260904005026 68 0 0.0 0.0 0.00 0.00 0.00 68
20260904004026 68 0 0.0 0.0 0.00 0.00 0.00 68
20260904003028 68 0 0.0 0.0 0.00 0.00 0.00 68
20260904002028 68 0 0.0 0.0 0.00 0.00 0.00 67
20260904001025 68 0 0.0 0.0 0.00 0.00 0.00 67
20260904000032 68 0 0.0 0.0 0.00 0.00 0.00 67
20260903235028 68 0 0.0 0.0 0.00 0.00 0.00 66
20260903234027 68 0 0.0 0.0 0.00 0.00 0.00 66
20260903232035 68 0 0.0 0.0 0.00 0.00 0.00 66
20260903231031 68 0 0.0 0.0 0.00 0.00 0.00 67
20260903224025 68 0 0.0 0.0 0.00 0.00 0.00 67
20260903223028 68 0 0.0 0.0 0.00 0.00 0.00 66
20260903222035 68 0 0.0 0.0 0.00 0.00 0.00 66
20260903221026 68 0 0.0 0.0 0.00 0.00 0.00 66
20260903220041 69 0 0.0 0.0 0.00 0.00 0.00 66
20260903215023 69 0 0.0 0.0 0.00 0.00 0.00 66
20260903214035 69 0 0.0 0.0 0.00 0.00 0.00 65
20260903212026 69 0 0.0 0.0 0.00 0.00 0.00 65
20260903211033 69 0 0.0 0.0 0.00 0.00 0.00 65
20260903210044 69 0 0.0 0.0 0.00 0.00 0.00 66
20260903205033 69 0 0.0 0.0 0.00 0.00 0.00 66
20260903204028 69 0 0.0 0.0 0.00 0.00 0.00 64
20260903203036 69 0 0.0 0.0 0.00 0.00 0.00 64
20260903202024 69 0 0.0 0.0 0.00 0.00 0.00 63
20260903201023 69 0 0.0 0.0 0.00 0.00 0.00 63
20260903200037 69 0 0.0 0.0 0.00 0.00 0.00 63
20260903195028 69 0 0.0 0.0 0.00 0.00 0.00 63
20260903194028 70 0 0.0 0.0 0.00 0.00 0.00 62
20260903193028 70 0 0.0 0.0 0.00 0.00 0.00 63
20260903192033 70 0 0.0 0.0 0.00 0.00 0.00 62
20260903191022 70 0 0.0 0.0 0.00 0.00 0.00 61
20260903190032 71 0 0.0 0.0 0.00 0.00 0.00 60
20260903185027 71 0 0.0 0.0 0.00 0.00 0.00 59
20260903184026 71 0 0.0 0.0 0.00 0.00 0.00 59
20260903183035 72 0 0.0 0.0 0.00 0.00 0.00 59
20260903181028 72 0 0.0 0.0 0.00 0.00 0.00 57
20260903180038 73 0 0.0 0.0 0.00 0.00 0.00 57
20260903175027 73 0 0.0 0.0 0.00 0.00 0.00 56
20260903174022 74 0 0.0 0.0 0.00 0.00 0.00 55
20260903173028 74 0 0.0 0.0 0.00 0.00 0.00 54
20260903172022 75 0 0.0 0.0 0.00 0.00 0.00 54
20260903171025 75 0 0.0 0.0 0.00 0.00 0.00 53